Location: Rancho Del Sol Observatory
(38.7214°N, 120.6350°W)
Time: 18:10:12
(UTC-08:00)

A-11 Canister half - Pass Details

Date: 31 January 2020
Orbit: 1517 x 1683 km, 47.2° (Epoch: 19 February)

Event Time Altitude Azimuth Distance (km) Brightness Sun altitude
Rises 06:40:45 0° 288° (WNW) 4,661 - -6.1°
Exits shadow 06:43:18 - 278° (W) 4,086 10.6 -5.7°
Reaches altitude 10° 06:45:34 10° 267° (W) 3,682 10.4 -5.2°
Maximum altitude 06:50:06 15° 236° (WSW) 3,329 10.4 -4.4°
Drops below altitude 10° 06:54:40 10° 206° (SSW) 3,709 11.0 -3.6°
Sets 06:59:37 0° 185° (S) 4,718 11.8 -2.6°
